NI4CE-10 Weather Reports


time (UTC)temp
C
wind
direction
speed
KPH
gust
KPH
rain 1hr
cm
rain 24hr
cm
rain mn
cm
humidity
%
barometer
mb
20200531081710 20 180 0.0 0.0 0.00 0.00 0.00 100 1016.0
20200531081315 20 180 0.0 0.0 0.00 0.00 0.00 100 1016.0
20200531081209 20 180 0.0 0.0 0.00 0.00 0.00 100 1016.0
20200531080744 20 180 0.0 0.0 0.00 0.00 0.00 100 1015.9
20200531080710 20 180 0.0 0.0 0.00 0.00 0.00 100 1015.9
20200531080210 20 180 0.0 0.0 0.00 0.00 0.00 100 1015.9
20200531075709 20 180 0.0 0.0 0.00 0.00 0.00 100 1016.0
20200531075209 20 180 0.0 0.0 0.00 0.00 0.00 100 1015.9
20200531074709 20 180 0.0 0.0 0.00 0.00 0.00 100 1015.9
20200531074209 20 180 0.0 0.0 0.00 0.00 0.00 100 1016.1
20200531073709 20 180 0.0 0.0 0.00 0.00 0.00 100 1016.2
20200531073209 20 180 0.0 0.0 0.00 0.00 0.00 100 1016.2
20200531072709 20 180 0.0 0.0 0.00 0.00 0.00 100 1016.2
20200531072210 20 180 0.0 0.0 0.00 0.00 0.00 100 1016.3
20200531072034 20 180 0.0 0.0 0.00 0.00 0.00 100 1016.3
20200531071710 20 180 0.0 0.0 0.00 0.00 0.00 100 1016.3
20200531071210 20 180 0.0 0.0 0.00 0.00 0.00 100 1016.3
20200531070746 20 180 0.0 0.0 0.00 0.00 0.00 100 1016.4
20200531070710 20 180 0.0 0.0 0.00 0.00 0.00 100 1016.4
20200531070210 20 180 0.0 0.0 0.00 0.00 0.00 100 1016.4
20200531065937 20 180 0.0 0.0 0.00 0.00 0.00 100 1016.6
20200531065710 20 180 0.0 0.0 0.00 0.00 0.00 100 1016.4
20200531065210 20 180 0.0 0.0 0.00 0.00 0.00 100 1016.4
20200531064710 20 180 0.0 0.0 0.00 0.00 0.00 100 1016.5
20200531064210 20 180 0.0 0.0 0.00 0.00 0.00 100 1016.4
20200531063710 20 180 0.0 0.0 0.00 0.00 0.00 100 1016.6
20200531063705 20 180 0.0 0.0 0.00 0.00 0.00 100 1016.4
20200531063255 20 180 0.0 0.0 0.00 0.00 0.00 100 1016.4
20200531063210 20 180 0.0 0.0 0.00 0.00 0.00 100 1016.4
20200531062710 20 180 0.0 0.0 0.00 0.00 0.00 100 1016.6
20200531062210 20 180 0.0 0.0 0.00 0.00 0.00 100 1016.6
20200531061710 20 180 0.0 0.0 0.00 0.00 0.00 100 1016.7
20200531061210 21 180 0.0 0.0 0.00 0.00 0.00 100 1016.7
20200531060710 21 180 0.0 0.0 0.00 0.00 0.00 100 1016.7
20200531060210 21 180 0.0 0.0 0.00 0.00 0.00 100 1016.7
20200531055753 21 180 0.0 0.0 0.00 0.00 0.00 100 1016.8
20200531055710 21 180 0.0 0.0 0.00 0.00 0.00 100 1016.8
20200531055210 21 180 0.0 0.0 0.00 0.00 0.00 100 1016.9
20200531054710 21 180 0.0 0.0 0.00 0.00 0.00 100 1016.9
20200531054210 21 180 0.0 0.0 0.00 0.00 0.00 100 1016.9
20200531053710 21 180 0.0 0.0 0.00 0.00 0.00 100 1017.0
20200531053210 21 180 0.0 0.0 0.00 0.00 0.00 100 1017.1
20200531052710 21 180 0.0 0.0 0.00 0.00 0.00 100 1017.0
20200531052210 21 180 0.0 0.0 0.00 0.00 0.00 100 1017.1
20200531051742 21 180 0.0 0.0 0.00 0.00 0.00 100 1017.3
20200531051710 21 180 0.0 0.0 0.00 0.00 0.00 100 1017.3
20200531051210 21 180 0.0 0.0 0.00 0.00 0.00 100 1017.4
20200531050710 21 180 0.0 0.0 0.00 0.00 0.00 100 1017.5
20200531050253 21 180 0.0 0.0 0.00 0.00 0.00 100 1017.6
20200531050210 21 180 0.0 0.0 0.00 0.00 0.00 100 1017.6
20200531045710 21 180 0.0 0.0 0.00 0.00 0.00 100 1017.6
20200531045210 22 180 0.0 0.0 0.00 0.00 0.00 100 1017.8
20200531044710 21 180 0.0 0.0 0.00 0.00 0.00 100 1017.9
20200531044210 21 180 0.0 0.0 0.00 0.00 0.00 100 1017.9
20200531043710 22 180 0.0 0.0 0.00 0.00 0.00 100 1018.1
20200531043210 22 180 0.0 0.0 0.00 0.00 0.00 100 1017.6
20200531042710 22 180 0.0 0.0 0.00 0.00 0.00 100 1018.3
20200531042210 22 180 0.0 0.0 0.00 0.00 0.00 100 1018.3
20200531041710 22 180 0.0 0.0 0.00 0.00 0.00 100 1018.4
20200531041244 22 180 0.0 3.2 0.00 0.00 0.00 100 1018.4
20200531041210 22 180 0.0 3.2 0.00 0.00 0.00 100 1018.4
20200531040710 22 180 0.0 1.6 0.00 0.00 0.00 100 1018.3
20200531040210 22 180 0.0 3.2 0.00 0.00 0.00 100 1018.5
20200531035712 22 180 1.6 4.8 0.00 0.00 0.00 100 1018.4
20200531035211 22 180 0.0 4.8 0.00 0.00 0.00 100 1018.3
20200531034710 22 180 3.2 4.8 0.00 0.00 0.00 100 1018.5
20200531034210 22 180 3.2 3.2 0.00 0.00 0.00 100 1018.5
20200531033711 22 180 0.0 9.7 0.00 0.00 0.00 100 1018.2
20200531033210 22 180 3.2 14.5 0.00 0.00 0.00 100 1018.4
20200531032710 22 180 4.8 9.7 0.00 0.00 0.00 100 1018.5
20200531032211 22 180 0.0 3.2 0.00 0.00 0.00 100 1018.0
20200531031711 22 180 0.0 0.0 0.00 0.00 0.00 100 1018.0
20200531031211 22 180 0.0 0.0 0.00 0.00 0.00 100 1018.1
20200531030711 22 180 0.0 0.0 0.00 0.00 0.00 100 1017.2
20200531030254 22 180 0.0 0.0 0.00 0.00 0.00 100 1018.2
20200531030211 22 180 0.0 0.0 0.00 0.00 0.00 100 1018.2
20200531025711 22 180 0.0 1.6 0.00 0.00 0.00 100 1018.2
20200531025211 22 180 0.0 0.0 0.00 0.00 0.00 100 1018.2
20200531024711 22 180 0.0 0.0 0.00 0.00 0.00 100 1018.3
20200531024211 22 180 0.0 0.0 0.00 0.00 0.00 100 1018.3
20200531023711 22 180 0.0 0.0 0.00 0.00 0.00 100 1018.4
20200531023211 22 180 0.0 0.0 0.00 0.00 0.00 100 1018.4
20200531022711 22 180 0.0 0.0 0.00 0.00 0.00 100 1018.3
20200531022211 22 180 0.0 0.0 0.00 0.00 0.00 100 1018.2
20200531021711 22 180 0.0 0.0 0.00 0.00 0.00 100 1018.1
20200531021451 22 180 0.0 4.8 0.00 0.00 0.00 100 1018.0
20200531021420 22 180 0.0 4.8 0.00 0.00 0.00 100 1018.0
20200531021211 22 180 0.0 4.8 0.00 0.00 0.00 100 1018.0
20200531020711 22 180 3.2 3.2 0.00 0.00 0.00 100 1018.0
20200531020212 22 180 0.0 0.0 0.00 0.00 0.00 100 1017.7
20200531015744 22 180 0.0 0.0 0.00 0.00 0.00 100 1018.0
20200531015711 22 180 0.0 0.0 0.00 0.00 0.00 100 1018.0
20200531015211 22 180 0.0 3.2 0.00 0.00 0.00 100 1017.9
20200531014711 22 180 0.0 0.0 0.00 0.00 0.00 100 1018.0
20200531014441 23 180 0.0 0.0 0.00 0.00 0.00 100 1016.1
20200531014211 22 180 0.0 3.2 0.00 0.00 0.00 100 1017.9
20200531013711 22 180 3.2 4.8 0.00 0.00 0.00 100 1016.4
20200531013256 23 180 0.0 0.0 0.00 0.00 0.00 100 1016.2
20200531013211 23 180 0.0 0.0 0.00 0.00 0.00 100 1016.2
20200531012711 23 180 0.0 0.0 0.00 0.00 0.00 100 1016.1
20200531012303 23 180 4.8 8.0 0.00 0.00 0.00 100 1016.1
20200531012211 23 180 0.0 0.0 0.00 0.00 0.00 100 1016.1
20200531011711 23 180 0.0 0.0 0.00 0.00 0.00 100 1016.1
20200531011211 23 180 0.0 0.0 0.00 0.00 0.00 100 1016.0
20200531010711 23 180 0.0 0.0 0.00 0.00 0.00 100 1016.0
20200531010211 23 180 0.0 6.4 0.00 0.00 0.00 100 1016.0
20200531005711 23 180 4.8 8.0 0.00 0.00 0.00 100 1016.1
20200531005442 23 180 4.8 6.4 0.00 0.00 0.00 100 1016.5
20200531005211 23 180 4.8 6.4 0.00 0.00 0.00 100 1016.5
20200531004753 23 180 0.0 6.4 0.00 0.00 0.00 100 1016.0
20200531004711 23 180 0.0 6.4 0.00 0.00 0.00 100 1016.0
20200531004337 23 180 1.6 6.4 0.00 0.00 0.00 100 1015.7
20200531004211 23 180 1.6 6.4 0.00 0.00 0.00 100 1015.7
20200531003905 23 180 3.2 6.4 0.00 0.00 0.00 100 1016.2
20200531003711 23 180 3.2 6.4 0.00 0.00 0.00 100 1015.8
20200531003211 23 180 3.2 6.4 0.00 0.00 0.00 100 1016.2
20200531003116 26 180 1.6 4.8 0.00 0.00 0.13 100 1016.2
20200531002711 23 180 4.8 9.7 0.00 0.00 0.00 100 1017.2
20200531002333 23 180 1.6 11.3 0.00 0.00 0.00 100 1017.1
20200531002211 23 180 1.6 11.3 0.00 0.00 0.00 100 1017.1
20200531001711 24 180 3.2 14.5 0.00 0.00 0.00 100 1017.2
20200531001211 24 180 6.4 19.3 0.00 0.00 0.00 100 1017.1
20200531000713 25 180 12.9 14.5 0.00 0.00 0.00 100 1017.1
20200531000211 25 180 12.9 14.5 0.00 0.00 0.00 100 1016.8
20200530235711 26 180 9.7 14.5 0.00 0.00 0.00 100 1016.7
20200530235211 26 180 0.0 0.0 0.00 0.00 0.00 100 1016.4
20200530234711 26 180 0.0 3.2 0.00 0.00 0.13 100 1016.2
20200530234211 26 180 3.2 3.2 0.00 0.00 0.13 100 1015.7
20200530233758 26 180 1.6 4.8 0.00 0.00 0.13 100 1016.2
20200530233711 26 180 1.6 4.8 0.00 0.00 0.13 100 1016.2
20200530233254 27 180 0.0 9.7 0.00 0.00 0.13 100 1015.9
20200530233212 27 180 0.0 9.7 0.00 0.00 0.13 100 1015.9
20200530232712 27 180 1.6 14.5 0.00 0.00 0.13 100 1016.1
20200530232212 29 180 4.8 9.7 0.00 0.00 0.13 100 1016.1
20200530231712 29 180 4.8 8.0 0.00 0.00 0.13 100 1015.7
20200530231359 30 180 8.0 12.9 0.00 0.00 0.13 100 1015.5
20200530231212 29 180 0.0 9.7 0.00 0.00 0.13 100 1015.6
20200530230712 30 180 8.0 12.9 0.00 0.00 0.13 100 1015.5
20200530230212 30 180 8.0 14.5 0.00 0.00 0.13 100 1015.5
20200530225712 30 180 4.8 11.3 0.00 0.00 0.13 100 1015.4
20200530225309 30 180 0.0 14.5 0.00 0.00 0.13 100 1015.3
20200530225212 30 180 0.0 14.5 0.00 0.00 0.13 100 1015.3
20200530224924 30 180 0.0 14.5 0.00 0.00 0.13 100 1015.0
20200530224757 30 180 0.0 14.5 0.00 0.00 0.13 100 1015.0
20200530224712 30 180 0.0 14.5 0.00 0.00 0.13 100 1015.0
20200530224212 30 180 6.4 14.5 0.00 0.00 0.13 100 1014.9
20200530223757 30 180 1.6 14.5 0.00 0.00 0.13 100 1014.6
20200530223712 30 180 1.6 14.5 0.00 0.00 0.13 100 1014.6
20200530223212 30 180 9.7 17.7 0.00 0.00 0.13 100 1014.5
20200530222712 30 180 8.0 16.1 0.00 0.00 0.13 100 1014.5
20200530222254 30 180 11.3 14.5 0.00 0.00 0.13 100 1014.5
20200530222212 30 180 11.3 14.5 0.00 0.00 0.13 100 1014.5
20200530221712 30 180 6.4 14.5 0.00 0.00 0.13 100 1014.6
20200530221212 31 180 6.4 16.1 0.00 0.00 0.13 100 1014.6
20200530220836 31 180 6.4 12.9 0.00 0.00 0.13 100 1014.9
20200530220712 31 180 6.4 14.5 0.00 0.00 0.13 100 1014.8
20200530220212 31 180 6.4 12.9 0.00 0.00 0.13 100 1014.9
20200530215805 31 180 0.0 11.3 0.00 0.00 0.13 100 1014.9
20200530215712 31 180 0.0 11.3 0.00 0.00 0.13 100 1014.9
20200530215251 31 180 0.0 14.5 0.00 0.00 0.13 100 1014.8
20200530215212 31 180 0.0 14.5 0.00 0.00 0.13 100 1014.8
20200530214712 31 180 8.0 17.7 0.00 0.00 0.13 100 1014.7
20200530214258 32 180 3.2 8.0 0.00 0.00 0.13 100 1014.9
20200530214212 32 180 3.2 8.0 0.00 0.00 0.13 100 1014.9
20200530213712 31 180 3.2 8.0 0.00 0.00 0.13 100 1014.7
20200530213212 32 180 1.6 8.0 0.00 0.00 0.13 100 1014.8
20200530212748 31 180 0.0 8.0 0.00 0.00 0.13 100 1014.7
20200530212713 31 180 0.0 8.0 0.00 0.00 0.13 100 1014.7
20200530212212 31 180 1.6 9.7 0.00 0.00 0.13 100 1014.9
20200530211712 31 180 4.8 11.3 0.00 0.00 0.13 100 1015.1
20200530211212 31 180 4.8 6.4 0.00 0.00 0.13 100 1015.1
20200530210712 30 180 6.4 8.0 0.00 0.00 0.13 100 1015.3
20200530210301 31 180 0.0 8.0 0.00 0.00 0.13 100 1015.4
20200530210212 31 180 0.0 8.0 0.00 0.00 0.13 100 1015.4
20200530205712 30 180 3.2 11.3 0.00 0.00 0.13 100 1015.4
20200530205213 29 180 4.8 8.0 0.00 0.00 0.13 100 1015.4
20200530204213 27 180 9.7 12.9 0.13 0.13 0.13 100 1015.8
20200530203759 26 180 8.0 14.5 0.13 0.13 0.13 100 1015.8
20200530203713 26 180 8.0 14.5 0.13 0.13 0.13 100 1015.8
20200530203213 26 180 11.3 14.5 0.13 0.13 0.13 100 1015.8
20200530202713 26 180 4.8 19.3 0.13 0.13 0.13 100 1016.0
20200530202213 25 180 11.3 20.9 0.13 0.13 0.13 100 1016.2
20200530201757 25 180 9.7 17.7 0.13 0.13 0.13 100 1016.2
20200530201713 25 180 9.7 17.7 0.13 0.13 0.13 100 1016.2
20200530201256 25 180 12.9 17.7 0.13 0.13 0.13 100 1016.1
20200530201213 25 180 12.9 17.7 0.13 0.13 0.13 100 1016.1
20200530200814 24 180 8.0 19.3 0.13 0.13 0.13 100 1016.1
20200530200713 24 180 8.0 19.3 0.13 0.13 0.13 100 1016.1
20200530200213 25 180 17.7 25.7 0.13 0.13 0.13 100 1016.2
20200530195758 25 180 4.8 17.7 0.10 0.10 0.10 100 1016.4
20200530195713 25 180 4.8 17.7 0.10 0.10 0.10 100 1016.4
20200530195213 25 180 14.5 22.5 0.10 0.10 0.10 100 1016.5
20200530194713 27 180 6.4 11.3 0.03 0.03 0.03 100 1016.5
20200530194213 27 180 3.2 14.5 0.00 0.00 0.00 100 1016.4
20200530193714 28 180 1.6 9.7 0.00 0.00 0.00 100 1014.6
20200530193213 28 180 4.8 9.7 0.00 0.00 0.00 100 1014.5
20200530192759 28 180 3.2 14.5 0.00 0.00 0.00 100 1014.6
20200530192714 28 180 3.2 14.5 0.00 0.00 0.00 100 1014.6
20200530192251 28 180 1.6 19.3 0.00 0.00 0.00 100 1014.8
20200530192214 28 180 1.6 19.3 0.00 0.00 0.00 100 1014.8
20200530191714 29 180 4.8 14.5 0.00 0.00 0.00 100 1014.8
20200530191312 30 180 8.0 16.1 0.00 0.00 0.00 100 1015.8
20200530191214 30 180 8.0 16.1 0.00 0.00 0.00 100 1015.8
20200530190800 32 180 8.0 9.7 0.00 0.00 0.00 100 1016.1
20200530190714 32 180 8.0 9.7 0.00 0.00 0.00 100 1016.1
20200530190214 33 180 0.0 3.2 0.00 0.00 0.00 100 1016.0
20200530185801 33 180 0.0 1.6 0.00 0.00 0.00 100 1015.5
20200530185714 33 180 0.0 1.6 0.00 0.00 0.00 100 1015.5
20200530185254 33 180 0.0 8.0 0.00 0.00 0.00 100 1015.1
20200530185214 33 180 0.0 8.0 0.00 0.00 0.00 100 1015.1
20200530184758 35 180 1.6 9.7 0.00 0.00 0.00 100 1015.8
20200530184714 35 180 0.0 6.4 0.00 0.00 0.00 100 1016.0
20200530184259 35 180 1.6 9.7 0.00 0.00 0.00 100 1015.8
20200530184214 35 180 1.6 9.7 0.00 0.00 0.00 100 1015.8
20200530183714 35 180 8.0 8.0 0.00 0.00 0.00 100 1014.6
20200530183325 34 180 0.0 8.0 0.00 0.00 0.00 100 1014.9
20200530183214 34 180 0.0 8.0 0.00 0.00 0.00 100 1014.9
20200530182714 33 180 6.4 9.7 0.00 0.00 0.00 100 1015.9
20200530182214 33 180 1.6 4.8 0.00 0.00 0.00 100 1014.6
20200530181809 33 180 0.0 9.7 0.00 0.00 0.00 100 1016.3
20200530181714 33 180 0.0 9.7 0.00 0.00 0.00 100 1016.3
20200530181255 32 180 1.6 3.2 0.00 0.00 0.00 100 1016.2
20200530181214 32 180 1.6 3.2 0.00 0.00 0.00 100 1016.2
20200530180714 32 180 0.0 0.0 0.00 0.00 0.00 100 1016.2
20200530180550 32 180 0.0 1.6 0.00 0.00 0.00 100 1016.4
20200530180214 32 180 0.0 1.6 0.00 0.00 0.00 100 1016.4
20200530175714 32 180 0.0 4.8 0.00 0.00 0.00 100 1016.4
20200530175214 32 180 0.0 3.2 0.00 0.00 0.00 100 1016.5
20200530174714 33 180 1.6 4.8 0.00 0.00 0.00 100 1016.6
20200530174251 33 180 1.6 11.3 0.00 0.00 0.00 100 1016.6
20200530174214 33 180 1.6 11.3 0.00 0.00 0.00 100 1016.6
20200530173757 35 180 0.0 3.2 0.00 0.00 0.00 100 1016.7
20200530173714 35 180 0.0 3.2 0.00 0.00 0.00 100 1016.7
20200530173214 35 180 0.0 4.8 0.00 0.00 0.00 100 1016.7
20200530172714 35 180 0.0 3.2 0.00 0.00 0.00 100 1016.7
20200530172406 34 180 1.6 6.4 0.00 0.00 0.00 100 1016.8
20200530172325 35 180 0.0 4.8 0.00 0.00 0.00 100 1016.5
20200530172214 35 180 0.0 4.8 0.00 0.00 0.00 100 1016.5
20200530171714 34 180 1.6 6.4 0.00 0.00 0.00 100 1016.8
20200530171214 33 180 0.0 1.6 0.00 0.00 0.00 100 1017.0
20200530170714 33 180 0.0 0.0 0.00 0.00 0.00 100 1016.5
20200530170214 33 180 0.0 0.0 0.00 0.00 0.00 100 1017.0
20200530165815 32 180 0.0 1.6 0.00 0.00 0.00 100 1017.0
20200530165714 32 180 0.0 4.8 0.00 0.00 0.00 100 1017.0
20200530165214 32 180 0.0 0.0 0.00 0.00 0.00 100 1017.1
20200530164714 31 180 0.0 0.0 0.00 0.00 0.00 100 1017.1
20200530164214 31 180 0.0 0.0 0.00 0.00 0.00 100 1017.2
20200530163714 31 180 0.0 0.0 0.00 0.00 0.00 100 1017.2
20200530163214 32 180 0.0 1.6 0.00 0.00 0.00 100 1017.0
20200530162714 32 180 0.0 0.0 0.00 0.00 0.00 100 1017.2
20200530162343 33 180 3.2 9.7 0.00 0.00 0.00 100 1017.5
20200530162214 32 180 0.0 0.0 0.00 0.00 0.00 100 1017.3
20200530161758 32 180 0.0 0.0 0.00 0.00 0.00 100 1017.3
20200530161714 32 180 0.0 0.0 0.00 0.00 0.00 100 1017.3
20200530161257 32 180 0.0 4.8 0.00 0.00 0.00 100 1017.3
20200530161214 32 180 0.0 4.8 0.00 0.00 0.00 100 1017.3
20200530160810 31 180 0.0 4.8 0.00 0.00 0.00 100 1017.3
20200530160714 31 180 0.0 4.8 0.00 0.00 0.00 100 1017.3
20200530160336 31 180 0.0 6.4 0.00 0.00 0.00 100 1017.4
20200530160214 31 180 0.0 6.4 0.00 0.00 0.00 100 1017.4
20200530155759 32 180 3.2 3.2 0.00 0.00 0.00 100 1017.5
20200530155714 32 180 3.2 3.2 0.00 0.00 0.00 100 1017.5
20200530155306 31 180 0.0 3.2 0.00 0.00 0.00 100 1017.5
20200530155215 31 180 0.0 3.2 0.00 0.00 0.00 100 1017.5
20200530154714 32 180 0.0 3.2 0.00 0.00 0.00 100 1017.5
20200530154214 33 180 0.0 4.8 0.00 0.00 0.00 100 1017.6
20200530153715 33 180 3.2 9.7 0.00 0.00 0.00 100 1017.5
20200530153215 32 180 0.0 6.4 0.00 0.00 0.00 100 1017.6
20200530152715 32 180 3.2 9.7 0.00 0.00 0.00 100 1017.6
20200530152503 32 180 0.0 3.2 0.00 0.00 0.00 100 1017.7
20200530152215 32 180 8.0 8.0 0.00 0.00 0.00 100 1017.6
20200530151715 32 180 0.0 3.2 0.00 0.00 0.00 100 1017.7
20200530151215 32 180 0.0 8.0 0.00 0.00 0.00 100 1017.7
20200530150715 32 180 6.4 8.0 0.00 0.00 0.00 100 1017.6
20200530150215 32 180 0.0 6.4 0.00 0.00 0.00 100 1017.6
20200530145715 31 180 4.8 6.4 0.00 0.00 0.00 100 1017.7
20200530145215 31 180 0.0 4.8 0.00 0.00 0.00 100 1017.6
20200530144839 30 180 0.0 8.0 0.00 0.00 0.00 100 1017.3
20200530144715 30 180 0.0 8.0 0.00 0.00 0.00 100 1017.3
20200530144516 30 180 0.0 6.4 0.00 0.00 0.00 100 1017.6
20200530144215 31 180 0.0 3.2 0.00 0.00 0.00 100 1017.6
20200530143715 30 180 0.0 6.4 0.00 0.00 0.00 100 1017.6
20200530143215 31 180 0.0 6.4 0.00 0.00 0.00 100 1017.7
20200530142715 30 180 1.6 11.3 0.00 0.00 0.00 100 1017.8
20200530142356 30 180 0.0 6.4 0.00 0.00 0.00 100 1017.7
20200530142215 30 180 0.0 6.4 0.00 0.00 0.00 100 1017.7
20200530141715 30 180 6.4 9.7 0.00 0.00 0.00 100 1017.8
20200530141253 30 180 1.6 6.4 0.00 0.00 0.00 100 1017.8
20200530141215 30 180 1.6 6.4 0.00 0.00 0.00 100 1017.8
20200530140715 29 180 0.0 6.4 0.00 0.00 0.00 100 1017.8
20200530140254 29 180 0.0 6.4 0.00 0.00 0.00 100 1017.9
20200530140215 29 180 0.0 6.4 0.00 0.00 0.00 100 1017.9
20200530135715 29 180 1.6 6.4 0.00 0.00 0.00 100 1017.4
20200530135254 29 180 0.0 6.4 0.00 0.00 0.00 100 1017.9
20200530135215 29 180 0.0 6.4 0.00 0.00 0.00 100 1017.9
20200530134835 29 180 0.0 6.4 0.00 0.00 0.00 100 1017.9
20200530134715 29 180 0.0 6.4 0.00 0.00 0.00 100 1017.9
20200530134426 28 180 0.0 4.8 0.00 0.00 0.00 100 1017.9
20200530134215 28 180 3.2 6.4 0.00 0.00 0.00 100 1017.8
20200530133715 28 180 0.0 4.8 0.00 0.00 0.00 100 1017.9
20200530133215 28 180 0.0 4.8 0.00 0.00 0.00 100 1017.8
20200530132715 27 180 0.0 4.8 0.00 0.00 0.00 100 1017.8
20200530132215 27 180 0.0 3.2 0.00 0.00 0.00 100 1017.9
20200530131715 27 180 0.0 3.2 0.00 0.00 0.00 100 1017.9
20200530131653 27 180 0.0 3.2 0.00 0.00 0.00 100 1017.9
20200530131215 27 180 0.0 3.2 0.00 0.00 0.00 100 1017.9
20200530130715 27 180 1.6 4.8 0.00 0.00 0.00 100 1017.9
20200530130215 26 180 0.0 4.8 0.00 0.00 0.00 100 1017.8
20200530125715 26 180 0.0 0.0 0.00 0.00 0.00 100 1017.9
20200530125215 26 180 0.0 0.0 0.00 0.00 0.00 100 1017.9
20200530124715 26 180 0.0 0.0 0.00 0.00 0.00 100 1017.9
20200530124215 26 180 0.0 0.0 0.00 0.00 0.00 100 1017.9
20200530123715 25 180 0.0 3.2 0.00 0.00 0.00 100 1017.9
20200530123215 25 180 0.0 0.0 0.00 0.00 0.00 100 1017.9
20200530122715 25 180 0.0 0.0 0.00 0.00 0.00 100 1017.9
20200530122215 25 180 0.0 0.0 0.00 0.00 0.00 100 1017.9
20200530121715 25 180 0.0 0.0 0.00 0.00 0.00 100 1018.0
20200530121215 24 180 0.0 0.0 0.00 0.00 0.00 100 1018.1
20200530120716 24 180 0.0 0.0 0.00 0.00 0.00 100 1018.0
20200530120215 24 180 0.0 0.0 0.00 0.00 0.00 100 1018.1
20200530115715 23 180 0.0 3.2 0.00 0.00 0.00 100 1017.4
20200530115215 23 180 1.6 3.2 0.00 0.00 0.00 100 1018.0
20200530114715 23 180 0.0 1.6 0.00 0.00 0.00 100 1018.0
20200530114216 22 180 0.0 0.0 0.00 0.00 0.00 100 1017.9
20200530113715 22 180 0.0 0.0 0.00 0.00 0.00 100 1018.0
20200530113216 22 180 0.0 0.0 0.00 0.00 0.00 100 1017.8
20200530112716 22 180 0.0 0.0 0.00 0.00 0.00 100 1016.4
20200530112216 21 180 0.0 0.0 0.00 0.00 0.00 100 1017.7
20200530111716 21 180 0.0 0.0 0.00 0.00 0.00 100 1017.7
20200530111216 21 180 0.0 0.0 0.00 0.00 0.00 100 1017.7
20200530110716 20 180 0.0 0.0 0.00 0.00 0.00 100 1017.5
20200530110216 20 180 0.0 0.0 0.00 0.00 0.00 100 1017.5
20200530105716 20 180 0.0 0.0 0.00 0.00 0.00 100 1017.4
20200530105216 20 180 0.0 0.0 0.00 0.00 0.00 100 1017.5
20200530104716 20 180 0.0 0.0 0.00 0.00 0.00 100 1017.5
20200530104216 20 180 0.0 0.0 0.00 0.00 0.00 100 1017.5
20200530103726 20 180 0.0 0.0 0.00 0.00 0.00 100 1017.2
20200530103716 20 180 0.0 0.0 0.00 0.00 0.00 100 1017.2
20200530103220 20 180 0.0 0.0 0.00 0.00 0.00 100 1017.5
20200530103216 20 180 0.0 0.0 0.00 0.00 0.00 100 1017.5
20200530102716 20 180 0.0 0.0 0.00 0.00 0.00 100 1017.4
20200530102216 20 180 0.0 0.0 0.00 0.00 0.00 100 1017.3
20200530101716 20 180 0.0 0.0 0.00 0.00 0.00 100 1017.2
20200530101216 20 180 0.0 0.0 0.00 0.00 0.00 100 1017.2
20200530100938 20 180 0.0 0.0 0.00 0.00 0.00 100 1017.0
20200530100723 20 180 0.0 0.0 0.00 0.00 0.00 100 1017.2
20200530100716 20 180 0.0 0.0 0.00 0.00 0.00 100 1017.2
20200530100220 20 180 0.0 0.0 0.00 0.00 0.00 100 1017.1
20200530100216 20 180 0.0 0.0 0.00 0.00 0.00 100 1017.1
20200530095716 20 180 0.0 0.0 0.00 0.00 0.00 100 1017.0
20200530095216 20 180 0.0 0.0 0.00 0.00 0.00 100 1017.0
20200530094716 20 180 0.0 0.0 0.00 0.00 0.00 100 1017.0
20200530094216 20 180 0.0 0.0 0.00 0.00 0.00 100 1017.0
20200530093716 21 180 0.0 0.0 0.00 0.00 0.00 100 1016.9
20200530093217 20 180 0.0 0.0 0.00 0.00 0.00 100 1016.9
20200530092727 20 180 0.0 0.0 0.00 0.00 0.00 100 1016.8
20200530092716 20 180 0.0 0.0 0.00 0.00 0.00 100 1016.8
20200530092216 20 180 0.0 0.0 0.00 0.00 0.00 100 1016.9
20200530091716 20 180 0.0 0.0 0.00 0.00 0.00 100 1016.8
20200530091216 20 180 0.0 0.0 0.00 0.00 0.00 100 1016.9
20200530090716 21 180 0.0 0.0 0.00 0.00 0.00 100 1016.9
20200530090220 21 180 0.0 0.0 0.00 0.00 0.00 100 1016.9
20200530090216 21 180 0.0 0.0 0.00 0.00 0.00 100 1016.9
20200530085716 21 180 0.0 0.0 0.00 0.00 0.00 100 1016.8
20200530085216 21 180 0.0 0.0 0.00 0.00 0.00 100 1016.9
20200530084716 21 180 0.0 0.0 0.00 0.00 0.00 100 1016.7
20200530084216 21 180 0.0 0.0 0.00 0.00 0.00 100 1016.7
20200530083716 21 180 0.0 0.0 0.00 0.00 0.00 100 1016.8
20200530083216 21 180 0.0 0.0 0.00 0.00 0.00 100 1016.9
20200530082716 21 180 0.0 0.0 0.00 0.00 0.00 100 1016.9
20200530082217 21 180 0.0 0.0 0.00 0.00 0.00 100 1016.9